Content
SEND FEEDBACK

Daily
Averages
Monthly
Summary
Spain

BILBAO, SPAIN


Home > Europe > Spain
Elevation: 112 feet     Latitude: 43 18N     Longitude: 002 56W

WEATHER
 
SELECT A DAY
Number of Records: 226,662;   Date Range: 7/1/96 - 7/26/14
 
SHARE

PRINT THIS DATA

[ ← Previous Day ]
WEATHER ALMANAC - JANUARY 6, 2013
[ Next Day → ]
[ °C ]   °F
Weather ElementAverageHighLow
Temperature48.5 °F53.6 °F (2:30 pm)44.6 °F (6:00 am)
Dewpoint43.6 °F46.4 °F (3:30 pm)41 °F (9:00 am)
Humidity83.7 %93 % (6:00 am)71 % (1:30 pm)
Barometer30.44 in30.51 in (6:00 am)30.39 in (3:00 pm)
Wind Speed2.4 mph6.9 mph (12:00 pm)
Weather ElementAverage
Visibility6.2 mi
Wind DirectionENE (60.6 °)

Weather ElementTotal
Precipitation---
Heating Degree Days15.9 (Base 65)
Averaged from 35 records on January 6, 2013
WEATHER CONDITIONS BREAKOUT
WIND DIRECTION BREAKOUT
WEATHER BY HOUR - JANUARY 6, 2013
[ °C ]   °F
Local TimeTemperatureDewpointHumidityBarometerVisibilityWind DirectionWind SpeedGust SpeedPrecipitationEventsConditions
6:00 AM44.6 °F42.8 °F93 %30.51 in5.6 miVariable2.3 mphOvercast
6:30 AM44.6 °F42.8 °F93 %30.51 in6.2 miVariable1.2 mphOvercast
7:00 AM44.6 °F42.8 °F93 %30.51 in6.2 miVariable1.2 mphMostly Cloudy
7:30 AM44.6 °F42.8 °F93 %30.51 in6.2 miCalmMostly Cloudy
8:00 AM44.6 °F42.8 °F93 %30.51 in6.2 miCalmMostly Cloudy
8:30 AM44.6 °F42.8 °F93 %30.51 in6.2 miVariable1.2 mphMostly Cloudy
9:00 AM44.6 °F41.0 °F87 %30.51 in6.2 miVariable2.3 mphMostly Cloudy
9:30 AM44.6 °F41.0 °F87 %30.51 in6.2 miVariable2.3 mphMostly Cloudy
10:00 AM44.6 °F42.8 °F93 %30.48 in6.2 miESE (120°)3.5 mphMostly Cloudy
11:00 AM46.4 °F42.8 °F87 %30.48 in6.2 miSE (130°)4.6 mphMostly Cloudy
11:30 AM46.4 °F42.8 °F87 %30.45 in6.2 miESE (110°)4.6 mphMostly Cloudy
12:00 PM48.2 °F42.8 °F82 %30.45 in6.2 miSSE (150°)6.9 mphScattered Clouds
12:30 PM48.2 °F42.8 °F82 %30.45 in6.2 miSE (140°)4.6 mphScattered Clouds
1:00 PM50.0 °F42.8 °F76 %30.42 in6.2 miCalmScattered Clouds
1:30 PM51.8 °F42.8 °F71 %30.42 in6.2 miCalmPartly Cloudy
2:00 PM51.8 °F44.6 °F76 %30.42 in6.2 miVariable1.2 mphPartly Cloudy
2:30 PM53.6 °F44.6 °F72 %30.42 in6.2 miVariable2.3 mphPartly Cloudy
3:00 PM53.6 °F44.6 °F72 %30.39 in6.2 miVariable2.3 mphScattered Clouds
3:30 PM53.6 °F46.4 °F77 %30.42 in6.2 miVariable1.2 mphMostly Cloudy
4:00 PM51.8 °F46.4 °F82 %30.42 in6.2 miWNW (300°)4.6 mphMostly Cloudy
4:30 PM51.8 °F46.4 °F82 %30.42 in6.2 miWNW (290°)4.6 mphMostly Cloudy
5:00 PM51.8 °F44.6 °F76 %30.42 in6.2 miWest (270°)4.6 mphMostly Cloudy
5:30 PM50.0 °F44.6 °F82 %30.42 in6.2 miVariable2.3 mphMostly Cloudy
6:00 PM50.0 °F44.6 °F82 %30.42 in6.2 miWNW (290°)3.5 mphMostly Cloudy
6:30 PM50.0 °F44.6 °F82 %30.42 in6.2 miNW (320°)4.6 mphMostly Cloudy
7:00 PM50.0 °F44.6 °F82 %30.39 in6.2 miVariable2.3 mphMostly Cloudy
7:30 PM50.0 °F44.6 °F82 %30.42 in6.2 miVariable2.3 mphMostly Cloudy
8:00 PM48.2 °F44.6 °F87 %30.42 in6.2 miVariable2.3 mphMostly Cloudy
8:30 PM48.2 °F44.6 °F87 %30.42 in6.2 miVariable2.3 mphMostly Cloudy
9:00 PM48.2 °F44.6 °F87 %30.42 in6.2 miVariable2.3 mphMostly Cloudy
9:30 PM48.2 °F42.8 °F82 %30.42 in6.2 miCalmMostly Cloudy
10:00 PM48.2 °F42.8 °F82 %30.42 in6.2 miCalmMostly Cloudy
10:30 PM48.2 °F42.8 °F82 %30.42 in6.2 miVariable1.2 mphMostly Cloudy
11:00 PM48.2 °F42.8 °F82 %30.42 in6.2 miVariable2.3 mphMostly Cloudy
11:30 PM48.2 °F42.8 °F82 %30.42 in6.2 miVariable2.3 mphMostly Cloudy
Hourly data recorded from LEBB, located miles away from Bilbao, Spain







STORIES FROM OUR PARTNERS